User: anonymous   Login
Location: Winthrop
(48.4780°N, 120.1850°W)
Time: 04:38:04
(UTC-07:00)
Language:

LO-87 - Orbit

View from above orbital plane
View from above orbital plane
View from above satellite
View from above satellite

Ground track
Ground track

The orbit data is extracted from the following two-line orbital elements,

1 41557U 16033B   22142.18656406  .00020293  00000-0  61534-3 0  9990
2 41557  97.3868 239.8529 0012950 113.2749  96.4510 15.34073660333354
Epoch (UTC): 22 May 2022 04:28:39
Eccentricity: 0.0012950
inclination: 97.3868°
perigee height: 455 km
apogee height: 472 km
right ascension of ascending node: 239.8529°
argument of perigee: 113.2749°
revolutions per day: 15.34073660
mean anomaly at epoch: 96.4510°
orbit number at epoch: 33335

The dashed part of the orbit path shows where the satellite is in the earth's shadow,  

DLR